Terminal Aerodrome Forecast
Issued by NWS Spokane, WA

Home | Current Version | Previous Version | Text Only | Print | Product List | Glossary On
Versions: 1 2 3 4 5 6 7 8 9 10 11 12 13 14 15 16 17 18 19 20 21 22 23 24
000
FTUS46 KOTX 191728
TAFLWS
TAF
KLWS 191728Z 1918/2018 VRB04KT P6SM FEW100
     FM192000 30007KT P6SM FEW090
     FM200400 04003KT P6SM FEW150
     FM201600 08005KT P6SM SKC=

USA.gov is the U.S. government's official web portal to all federal, state and local government web resources and services.